Theta_e
318 323 327 329 330 332 334 335 336 337 339 342 347 343 349 352 344 350 349 350 350 346 342 342 340 341 342 343 342 343 345 346 348 347 351 352 352 353 352 349 350 350 348 341
317 321 322 326 330 332 332 333 333 337 340 337 342 345 352 352 348 347 344 348 348 344 343 348 344 342 342 342 345 347 348 347 346 348 349 352 351 353 352 352 348 348 348 346
317 320 323 326 328 331 330 332 335 340 339 336 336 341 348 348 348 346 344 345 343 344 341 346 346 344 343 343 344 344 344 349 351 351 353 352 352 351 351 351 350 349 347 348
316 317 321 323 327 328 330 330 333 341 338 339 332 337 340 350 349 346 344 341 341 344 341 343 347 346 346 343 342 342 343 342 345 352 354 353 353 352 351 350 349 347 346 349
316 323 323 323 324 328 328 330 332 339 336 333 336 333 332 351 353 350 345 341 341 344 340 341 348 347 347 346 344 344 344 343 341 348 355 354 355 353 352 351 350 350 350 349
316 318 321 321 323 325 327 334 332 331 331 335 334 335 335 341 345 352 348 343 340 345 344 346 349 349 348 348 347 347 348 349 344 345 348 356 354 353 351 348 348 348 342 339
315 316 317 321 321 322 333 331 335 337 336 336 331 335 334 337 338 345 350 347 341 340 340 346 347 352 349 350 348 349 350 350 346 344 356 356 354 353 350 346 342 340 338 341
315 317 318 321 320 321 325 329 335 340 338 335 331 335 334 332 335 336 344 347 343 341 335 342 346 351 353 353 352 352 353 351 351 358 357 355 355 355 350 346 341 339 339 343
316 318 320 323 324 323 325 333 330 332 330 332 330 332 332 334 338 337 342 345 345 343 339 340 344 355 356 357 358 356 357 356 360 358 356 357 357 354 346 340 338 339 342 344
316 316 316 319 321 321 323 325 333 328 337 338 333 336 336 337 340 339 342 347 346 346 347 343 350 356 358 359 359 361 362 361 360 357 358 358 354 348 341 337 338 341 344 343
313 314 317 320 321 321 321 328 327 327 329 335 336 335 334 334 338 343 346 349 348 348 348 348 352 355 357 359 360 361 361 359 358 359 358 355 350 341 337 339 340 342 344 344
312 311 314 316 317 320 322 323 328 330 332 329 330 334 335 336 340 345 348 349 350 352 355 353 353 355 358 359 359 358 358 358 359 358 357 354 346 342 340 340 342 345 345 345
314 313 315 315 315 323 327 327 326 324 327 333 337 334 334 336 340 344 346 349 348 351 342 339 352 354 358 358 359 359 358 359 358 358 355 353 345 342 341 342 346 345 345 345
317 310 315 318 317 326 330 330 327 324 327 329 332 331 339 336 342 345 346 346 347 348 348 345 351 354 357 358 358 358 357 357 359 357 352 351 342 342 346 346 345 344 345 344
318 315 315 314 316 327 332 329 330 331 329 334 333 335 334 336 341 345 344 346 347 346 349 352 353 353 356 357 357 357 357 358 358 354 351 346 346 347 346 345 344 344 343 340
326 327 320 319 326 329 332 330 331 331 331 331 330 333 330 332 334 341 343 347 347 346 351 353 354 354 355 357 356 352 348 352 349 351 343 349 347 345 345 345 343 341 339 333
331 332 331 335 321 323 321 321 325 330 330 331 334 331 335 336 338 342 342 346 345 341 345 351 354 353 356 354 351 351 350 348 348 343 347 348 346 345 345 342 339 336 330 328
331 330 324 334 327 331 323 323 329 331 333 338 337 334 336 336 337 336 339 343 344 340 339 340 338 353 352 349 349 348 340 345 344 346 346 346 344 343 341 337 331 328 328 327
328 325 325 333 329 330 331 332 333 332 335 347 341 336 335 339 343 351 352 340 341 341 335 341 342 354 351 349 348 344 344 344 345 345 345 344 343 341 336 329 326 328 329 321
331 327 330 327 333 331 328 339 338 336 336 348 344 337 338 338 338 339 349 351 342 348 350 349 353 353 350 348 347 344 345 345 341 338 342 336 337 336 327 327 328 328 324 318
335 333 335 332 331 327 339 339 338 335 337 350 347 349 341 339 334 342 351 350 349 350 354 353 351 350 346 344 345 344 344 341 340 338 334 337 333 326 326 324 323 322 320 315
336 341 343 341 331 331 335 340 339 336 343 347 347 344 344 342 350 351 350 347 347 347 347 345 343 341 341 343 345 341 339 337 336 337 334 328 325 326 324 320 320 321 315 311
337 338 339 340 341 336 335 336 337 340 346 344 341 340 340 340 350 351 350 345 344 345 343 341 340 339 339 339 341 338 338 340 335 331 326 325 324 322 318 315 314 313 311 308
335 333 337 339 340 340 337 335 336 337 342 341 337 336 336 336 341 349 347 344 343 342 340 339 338 337 336 337 336 339 340 336 330 323 323 324 324 318 315 313 312 311 309 307
334 336 336 336 336 336 337 337 335 336 336 342 336 334 334 335 339 348 345 341 339 339 338 339 336 335 335 336 337 337 333 330 324 322 322 323 324 321 317 313 312 311 308 309
332 333 337 340 337 337 336 334 335 336 336 337 339 337 335 344 347 345 342 339 338 336 335 335 335 335 333 334 332 329 327 324 323 322 322 321 321 319 317 314 313 313 312 311
Wind_Speed
4 4 4 8 5 5 3 3 5 11 8 10 15 15 9 12 5 8 7 7 7 8 2 19 27 32 33 32 28 24 28 29 27 25 20 15 13 11 11 10 9 9 8 6
5 4 8 2 1 3 4 4 9 11 2 3 8 10 2 11 8 5 9 10 7 4 6 9 17 24 34 32 27 23 24 27 28 25 18 13 9 12 12 10 11 8 5 4
5 6 3 3 2 4 3 4 5 8 6 1 5 6 3 3 3 6 7 4 5 8 7 8 13 22 26 32 31 25 23 22 24 21 14 12 12 9 5 6 9 7 4 3
4 6 3 1 4 6 6 5 9 11 4 1 6 4 4 4 8 7 11 7 9 8 6 11 15 19 24 33 34 28 23 23 22 17 15 13 13 7 3 3 1 3 6 3
7 2 4 5 9 5 11 4 10 7 3 5 3 1 5 6 8 12 10 11 10 5 6 11 16 26 28 30 35 31 22 18 23 18 15 13 11 5 3 2 2 1 3 6
7 2 5 7 4 6 6 3 5 3 4 2 5 2 5 6 6 8 10 10 12 6 6 6 15 19 22 27 30 25 21 18 24 18 15 11 8 8 6 12 15 15 12 9
5 7 4 4 4 3 4 6 3 3 3 6 1 2 8 4 8 9 18 16 12 6 5 7 8 16 21 26 29 24 22 19 19 18 15 12 7 8 11 14 14 12 11 10
5 6 7 4 8 8 7 9 6 6 5 5 3 5 5 2 9 9 14 20 16 11 7 7 7 15 20 25 27 24 23 21 20 19 17 12 10 12 13 15 14 10 9 7
5 5 1 3 4 7 3 3 6 7 3 3 3 6 9 6 2 7 6 9 15 15 12 10 8 15 19 21 25 29 26 24 22 21 18 15 14 16 16 16 10 10 8 6
4 3 5 2 3 1 5 5 3 3 4 3 4 4 6 2 5 7 8 11 9 3 5 2 7 16 18 22 27 27 27 28 26 21 18 17 18 16 15 15 13 9 7 5
6 4 5 3 3 5 2 1 4 5 5 6 3 6 8 6 7 9 8 9 14 16 12 13 10 14 20 24 28 28 28 26 24 22 20 20 19 17 17 14 10 8 6 2
8 5 5 11 5 1 2 6 7 5 5 2 4 6 3 8 7 8 12 15 10 11 8 8 7 12 19 23 28 28 28 29 28 25 24 22 19 19 16 11 9 8 3 1
9 2 2 10 7 4 3 4 4 4 4 5 6 6 3 3 5 8 12 9 10 10 10 13 5 10 19 24 28 30 32 31 29 28 25 22 19 16 14 12 10 5 2 2
5 4 8 10 8 4 4 4 3 7 4 4 6 9 6 7 8 8 5 3 7 9 9 15 8 9 16 19 22 24 28 33 32 29 27 21 16 17 18 14 8 5 5 5
4 2 1 6 6 6 6 5 4 3 5 5 5 9 7 12 13 14 6 8 8 9 12 14 13 11 18 19 22 30 25 27 32 31 24 23 23 21 14 11 7 8 8 7
4 1 2 3 5 5 3 5 5 6 5 5 2 8 8 6 7 5 8 12 14 12 15 13 14 15 16 20 10 13 18 21 12 20 22 23 19 16 13 10 11 11 10 7
3 3 3 4 5 1 3 7 5 5 3 5 6 8 4 4 14 16 15 16 19 18 12 13 13 11 13 19 21 25 18 15 24 19 18 16 14 13 13 13 11 11 9 11
3 4 2 3 4 1 9 4 5 6 4 2 0 3 10 9 3 3 11 19 18 15 11 7 7 13 20 30 27 36 23 25 27 27 27 21 17 15 16 13 10 12 13 14
3 2 3 3 3 6 3 5 3 6 0 4 4 6 9 8 4 4 2 7 17 18 5 12 16 18 24 28 29 27 25 25 30 27 20 20 18 18 15 12 15 15 15 20
4 4 3 3 3 5 5 5 11 6 2 4 4 8 7 5 3 4 10 6 8 8 16 20 22 23 30 26 26 25 24 26 26 22 22 19 17 16 14 16 14 16 22 20
5 3 3 3 3 6 0 10 7 5 7 2 12 10 11 6 5 3 9 9 10 10 17 25 25 20 24 35 29 24 26 23 23 26 22 18 16 15 18 19 19 23 21 17
3 1 3 1 3 4 3 8 6 3 4 14 11 9 10 11 11 11 9 6 9 12 15 20 18 17 25 24 28 24 24 26 26 25 24 20 18 19 21 21 20 19 18 18
3 5 3 6 4 3 3 5 8 1 9 6 13 9 10 12 8 13 9 6 3 13 14 18 21 20 20 21 26 26 25 28 26 23 21 20 21 21 21 19 18 19 18 20
4 3 3 3 3 8 3 5 4 5 8 12 6 11 14 9 11 9 9 10 4 11 14 17 18 17 18 21 22 26 28 27 25 22 22 22 23 22 18 16 16 17 18 18
4 3 3 5 7 7 0 5 5 5 7 10 6 6 10 9 7 15 12 7 8 13 14 17 17 16 19 19 20 24 26 25 23 22 21 19 21 22 19 16 15 15 16 13
5 6 4 5 5 3 3 4 3 6 10 9 7 4 1 6 11 12 11 16 17 17 19 18 20 25 22 22 21 19 19 19 21 20 18 17 19 18 16 15 13 12 11 10
Wind_Direction
353 87 194 221 176 191 258 266 298 292 193 170 203 242 222 189 215 204 215 246 228 226 146 179 184 182 193 197 201 211 204 207 199 201 209 219 228 231 237 246 263 266 278 295
19 218 218 249 210 253 264 330 301 275 195 154 161 239 193 190 222 205 209 232 228 223 143 156 174 180 187 193 191 188 197 202 202 210 220 236 241 244 244 247 252 248 261 303
162 234 119 167 275 276 285 223 274 253 332 21 110 327 168 228 212 195 225 178 217 217 194 169 177 184 188 190 194 202 204 203 203 209 226 233 245 243 284 237 248 254 241 280
224 260 204 233 253 142 276 181 246 268 71 356 76 267 246 189 214 218 216 201 219 213 210 181 175 186 191 198 201 204 212 215 204 201 206 216 255 267 282 296 295 238 235 259
244 237 187 192 229 152 244 192 251 245 66 83 302 107 268 129 217 222 222 231 214 203 223 184 193 188 198 198 209 211 219 217 206 201 206 223 239 224 223 169 160 245 181 118
225 252 158 211 270 199 272 254 41 35 108 51 234 155 276 198 203 200 222 228 233 189 224 210 190 187 191 199 207 210 212 213 210 214 213 221 205 188 146 126 111 111 112 104
319 267 244 184 308 352 131 69 331 355 12 231 100 276 242 211 206 196 200 209 223 156 200 195 180 172 177 188 200 202 205 199 196 201 203 201 198 176 156 146 136 133 126 114
176 327 171 167 180 208 194 160 161 210 207 257 33 231 253 153 228 218 189 198 199 192 197 206 222 187 180 183 187 195 199 192 190 193 194 192 178 173 164 161 155 142 136 115
155 268 261 165 158 147 242 169 187 105 20 72 248 297 305 104 345 248 158 166 201 205 200 198 212 178 174 171 178 193 193 193 188 188 194 188 182 174 165 158 159 150 144 135
218 293 227 255 151 259 161 168 76 359 130 217 281 259 233 270 222 239 167 194 212 160 118 200 230 170 169 167 181 191 186 181 183 185 186 184 176 171 167 163 162 153 144 131
142 123 254 90 173 225 40 342 29 121 128 163 211 258 218 182 203 194 193 195 179 190 179 160 187 177 161 168 178 183 183 181 182 181 181 178 176 174 169 174 169 162 151 132
202 152 232 224 255 244 192 225 161 139 220 171 163 268 44 173 168 210 178 191 157 91 126 145 152 167 163 166 179 181 187 186 183 181 178 180 179 180 182 180 163 161 167 80
171 255 311 332 352 18 211 181 147 134 93 187 144 262 50 195 183 195 182 194 129 125 166 197 139 175 178 180 179 184 188 185 184 179 178 178 181 182 184 169 157 164 136 85
105 129 167 218 206 163 276 190 171 127 116 189 221 238 210 205 188 186 212 122 146 152 166 205 174 186 199 188 185 188 189 187 184 179 173 174 176 162 150 156 158 156 146 118
90 161 326 224 210 179 194 241 173 153 178 162 242 203 212 195 189 184 158 142 170 173 178 179 172 182 194 189 190 196 185 184 182 172 167 158 154 155 156 155 153 140 124 101
359 138 76 270 238 254 283 267 170 207 198 246 229 285 204 145 112 143 180 178 190 202 194 186 190 181 188 187 183 84 80 103 173 167 157 153 153 154 156 147 141 124 114 97
77 106 70 289 350 302 2 247 235 228 181 153 184 232 122 159 183 185 179 191 197 206 200 185 179 183 164 127 130 116 169 152 154 167 150 150 154 163 149 137 126 115 114 114
136 104 96 217 22 299 239 288 248 236 97 281 351 206 177 188 199 223 190 186 204 213 204 142 144 121 135 127 146 153 167 160 154 165 165 173 184 176 144 138 127 121 122 119
58 133 110 159 181 278 287 328 192 171 269 335 275 139 141 140 71 328 306 244 217 219 107 125 144 145 137 139 152 152 153 155 168 164 176 171 171 156 145 137 132 134 134 126
10 90 136 124 157 219 252 346 336 313 294 333 341 62 90 107 124 286 333 311 222 164 139 145 153 161 135 147 148 147 148 158 157 182 174 161 168 152 140 141 143 144 137 126
320 3 214 164 191 277 351 300 302 156 222 208 100 73 70 103 163 296 6 353 56 69 119 132 144 157 137 155 157 151 159 164 166 157 154 157 152 149 145 139 142 140 134 127
186 137 237 246 144 270 2 345 181 317 172 138 115 133 107 108 111 89 42 27 69 90 89 108 119 134 150 155 154 151 152 154 158 153 149 150 150 144 141 137 138 145 140 131
266 188 229 191 243 249 168 224 284 358 266 199 132 157 162 163 114 120 123 104 117 101 98 116 132 136 154 163 162 146 153 155 150 149 148 146 139 141 143 143 145 145 146 140
237 168 212 359 270 254 86 292 270 318 303 304 155 179 144 164 134 132 131 137 181 111 116 122 120 129 141 155 163 156 158 156 151 147 146 148 146 148 149 145 147 146 150 148
216 133 252 266 289 280 161 224 245 265 297 288 241 270 157 147 93 127 135 132 140 122 126 133 130 129 133 148 154 158 160 158 152 148 148 152 157 162 157 154 156 157 161 156
185 199 165 229 241 266 291 285 259 242 229 250 260 300 111 82 116 132 142 161 153 130 132 137 149 143 145 148 154 159 162 162 154 151 156 161 164 169 169 166 170 179 188 206